Muncie, IN

4:29 AM EST on November 19, 2017 (GMT -0500)
Delaware County-Johnson

Weather History for KMIE - March, 2014

Change the Weather History Date:

Thursday, March 20, 2014

  Actual Average Record
Temperature  
Mean Temperature 40 °F 41 °F  
Max Temperature 48 °F 51 °F 83 °F (2012)
Min Temperature 31 °F 32 °F 11 °F (1993)
Degree Days  
Heating Degree Days 25 24  
Month to date heating degree days 650 550  
Since 1 July heating degree days 5560 4933  
Cooling Degree Days 0 0  
Month to date cooling degree days 0 0  
Year to date cooling degree days 0 0  
Moisture  
Dew Point 28 °F    
Average Humidity 66    
Maximum Humidity 82    
Minimum Humidity 50    
Precipitation  
Precipitation 0.00 in 0.10 in 1.35 in (2017)
Month to date precipitation 1.08 1.79  
Year to date precipitation 4.04 6.33  
Sea Level Pressure  
Sea Level Pressure 30.04 in    
Wind  
Wind Speed 11 mph (West)    
Max Wind Speed 24 mph    
Max Gust Speed 32 mph    
Visibility 10 miles    
Events      
T = Trace of Precipitation, MM = Missing Value Source: NWS Daily Summary

Daily Weather History Graph

Daily Weather History Graph

Search for Another Location

Airport or City:

Trip Planner

Search our weather history database for the weather conditions in past years. The results will help you decide how hot, cold, wet, or windy it might be!

Date:

Astronomy

Mar. 20, 2014 Rise Set
Actual Time 7:44 AM EDT 7:53 PM EDT
Civil Twilight 7:17 AM EDT 8:20 PM EDT
Nautical Twilight 6:46 AM EDT 8:52 PM EDT
Astronomical Twilight 6:13 AM EDT 9:24 PM EDT
Moon No Moon Rise 9:50 AM EDT (3/20)
Length of Visible Light 13h 02m
Length of Day
12h 08m
Waning Gibbous, 84% of the Moon is Illuminated
Mar 20
Waning Gibbous
Mar 23
Last Quarter
Mar 30
New
Apr 7
First Quarter
Apr 15
Full

Hourly Weather History & Observations

Time (EDT) Temp. Windchill Dew Point Humidity Pressure Visibility Wind Dir Wind Speed Gust Speed Precip Events Conditions
12:53 AM 35.1 °F 23.8 °F 27.0 °F 72% 30.01 in 9.0 mi West 20.7 mph 28.8 mph N/A   Overcast
1:53 AM 35.1 °F 24.5 °F 27.0 °F 72% 30.01 in 9.0 mi West 18.4 mph 27.6 mph N/A   Overcast
2:53 AM 34.0 °F 22.1 °F 25.0 °F 70% 30.02 in 9.0 mi West 21.9 mph 29.9 mph N/A   Overcast
3:53 AM 33.1 °F 23.0 °F 24.1 °F 70% 30.02 in 10.0 mi West 15.0 mph 21.9 mph N/A   Overcast
4:53 AM 32.0 °F 23.0 °F 25.0 °F 75% 30.02 in 10.0 mi West 11.5 mph 18.4 mph N/A   Overcast
5:53 AM 32.0 °F 22.1 °F 24.1 °F 73% 30.04 in 10.0 mi West 13.8 mph - N/A   Overcast
6:53 AM 32.0 °F 23.0 °F 23.0 °F 69% 30.05 in 10.0 mi WNW 11.5 mph - N/A   Overcast
7:53 AM 30.9 °F 23.5 °F 23.0 °F 72% 30.06 in 10.0 mi West 8.1 mph - N/A   Scattered Clouds
8:53 AM 32.0 °F 23.6 °F 25.0 °F 75% 30.07 in 10.0 mi WSW 10.4 mph - N/A   Clear
9:53 AM 35.1 °F 25.5 °F 26.1 °F 70% 30.09 in 10.0 mi West 15.0 mph - N/A   Clear
10:53 AM 37.0 °F 29.3 °F 27.0 °F 67% 30.09 in 10.0 mi West 11.5 mph - N/A   Partly Cloudy
11:53 AM 39.0 °F 31.0 °F 28.0 °F 65% 30.09 in 10.0 mi WNW 13.8 mph - N/A   Mostly Cloudy
12:53 PM 39.9 °F 32.9 °F 28.9 °F 65% 30.07 in 10.0 mi West 11.5 mph - N/A   Overcast
1:53 PM 45.0 °F 37.9 °F 28.9 °F 53% 30.05 in 10.0 mi West 16.1 mph - N/A   Mostly Cloudy
2:53 PM 45.0 °F 39.3 °F 28.9 °F 53% 30.02 in 10.0 mi WSW 11.5 mph - N/A   Overcast
3:53 PM 48.0 °F - 30.0 °F 50% 30.01 in 10.0 mi West 11.5 mph 19.6 mph N/A   Overcast
4:53 PM 46.9 °F - 30.0 °F 52% 30.00 in 10.0 mi West 13.8 mph - N/A   Overcast
5:53 PM 46.9 °F - 32.0 °F 56% 30.00 in 10.0 mi West 9.2 mph - N/A   Overcast
6:53 PM 46.0 °F 43.9 °F 34.0 °F 63% 30.01 in 10.0 mi North 4.6 mph - N/A   Overcast
7:53 PM 44.1 °F 40.8 °F 34.0 °F 68% 30.01 in 10.0 mi NW 5.8 mph - N/A   Overcast
8:53 PM 42.1 °F 40.2 °F 30.9 °F 65% 30.02 in 10.0 mi NNW 3.5 mph - N/A   Partly Cloudy
9:53 PM 36.0 °F 32.1 °F 30.0 °F 79% 30.04 in 10.0 mi ENE 4.6 mph - N/A   Clear
10:53 PM 37.0 °F - 30.9 °F 79% 30.04 in 10.0 mi Calm Calm - N/A   Overcast
11:53 PM 37.9 °F 34.4 °F 32.0 °F 79% 30.05 in 9.0 mi SE 4.6 mph - N/A   Overcast